WMT6JU LIMC-LUKK

Flight info

Callsign WMT6JU
Flight time 2h 2m
Altitude 36000
Route OSKOR DCT NEVNI DCT NOBMI DCT KUBUD/N0443F350 DCT VALLU DCT BEDOX DCT KOPRY DCT MAVIR DCT DEGET DCT BUSES
Aircraft A321/M-SDE3FGHIRWY/LB1

Departure

Time 2026-05-04 15:44
Airport Milan Malpensa International Airport (LIMC)

Arrival

Time 2026-05-04 17:47
Airport Chişinău International Airport (LUKK)
Time Latitude Longitude Altitude Speed Heading
2026-05-04 15:19 45.62363 8.71574 739 ft 0 kts 12°
2026-05-04 15:31 45.62323 8.71571 741 ft 2 kts 314°
2026-05-04 15:31 45.62307 8.71588 738 ft 4 kts 11°
2026-05-04 15:32 45.62297 8.71620 740 ft 4 kts 79°
2026-05-04 15:32 45.62300 8.71641 741 ft 0 kts 79°
2026-05-04 15:35 45.62304 8.71671 741 ft 3 kts 79°
2026-05-04 15:35 45.62311 8.71721 741 ft 7 kts 79°
2026-05-04 15:35 45.62322 8.71806 741 ft 10 kts 79°
2026-05-04 15:36 45.62251 8.71940 741 ft 12 kts 169°
2026-05-04 15:36 45.62165 8.71964 741 ft 13 kts 169°
2026-05-04 15:36 45.62065 8.71991 741 ft 16 kts 169°
2026-05-04 15:37 45.61941 8.72025 741 ft 19 kts 169°
2026-05-04 15:37 45.61807 8.72062 741 ft 20 kts 169°
2026-05-04 15:37 45.61668 8.72100 741 ft 21 kts 169°
2026-05-04 15:37 45.61525 8.72140 741 ft 21 kts 169°
2026-05-04 15:38 45.61378 8.72181 741 ft 22 kts 169°
2026-05-04 15:38 45.61229 8.72221 741 ft 22 kts 169°
2026-05-04 15:38 45.61076 8.72264 740 ft 23 kts 169°
2026-05-04 15:38 45.60921 8.72308 742 ft 23 kts 169°
2026-05-04 15:39 45.60763 8.72351 742 ft 23 kts 169°
2026-05-04 15:39 45.60650 8.72436 742 ft 18 kts 117°
2026-05-04 15:39 45.60614 8.72804 742 ft 21 kts 96°
2026-05-04 15:40 45.60598 8.73026 742 ft 23 kts 96°
2026-05-04 15:40 45.60616 8.73245 742 ft 23 kts 48°
2026-05-04 15:40 45.60761 8.73343 740 ft 23 kts 22°
2026-05-04 15:40 45.60918 8.73401 742 ft 23 kts 351°
2026-05-04 15:41 45.61078 8.73358 742 ft 24 kts 349°
2026-05-04 15:41 45.61242 8.73312 741 ft 24 kts 349°
2026-05-04 15:41 45.61410 8.73264 742 ft 24 kts 349°
2026-05-04 15:41 45.61557 8.73224 742 ft 15 kts 349°
2026-05-04 15:42 45.61621 8.73310 741 ft 15 kts 80°
2026-05-04 15:42 45.61620 8.73458 741 ft 16 kts 117°
2026-05-04 15:42 45.61585 8.73608 741 ft 17 kts 88°
2026-05-04 15:42 45.61617 8.73732 739 ft 11 kts 19°
2026-05-04 15:43 45.61654 8.73727 738 ft 0 kts 349°
2026-05-04 15:43 45.61665 8.73724 738 ft 14 kts 349°
2026-05-04 15:43 45.62027 8.73624 740 ft 90 kts 349°
2026-05-04 15:43 45.62862 8.73394 739 ft 151 kts 349°
2026-05-04 15:44 45.64037 8.73072 848 ft 187 kts 349°
2026-05-04 15:44 45.65300 8.72739 1564 ft 183 kts 348°
2026-05-04 15:44 45.66573 8.72575 2305 ft 185 kts 359°
2026-05-04 15:44 45.67880 8.72591 2768 ft 195 kts 359°
2026-05-04 15:45 45.69298 8.72595 2948 ft 218 kts 359°
2026-05-04 15:45 45.70875 8.72603 3384 ft 232 kts
2026-05-04 15:45 45.72399 8.73322 4068 ft 236 kts 39°
2026-05-04 15:45 45.73398 8.75187 4832 ft 238 kts 62°
2026-05-04 15:46 45.74119 8.77301 5606 ft 239 kts 67°
2026-05-04 15:46 45.74486 8.79622 6350 ft 240 kts 91°
2026-05-04 15:46 45.74212 8.82020 6939 ft 248 kts 111°
2026-05-04 15:46 45.73546 8.84326 7611 ft 252 kts 120°
2026-05-04 15:47 45.72571 8.86423 8346 ft 254 kts 128°
2026-05-04 15:47 45.71542 8.88439 9123 ft 255 kts 128°
2026-05-04 15:47 45.70491 8.90513 9935 ft 256 kts 129°
2026-05-04 15:47 45.69440 8.92590 10636 ft 258 kts 129°
2026-05-04 15:48 45.68383 8.94678 11285 ft 262 kts 129°
2026-05-04 15:48 45.67296 8.96816 11912 ft 267 kts 130°
2026-05-04 15:48 45.65204 9.01297 13108 ft 281 kts 117°
2026-05-04 15:49 45.64647 9.04044 13547 ft 299 kts 100°
2026-05-04 15:49 45.64590 9.07142 13697 ft 323 kts 91°
2026-05-04 15:49 45.64625 9.10471 13829 ft 345 kts 91°
2026-05-04 15:49 45.64656 9.13966 13958 ft 365 kts 91°
2026-05-04 15:50 45.64682 9.17675 14238 ft 378 kts 91°
2026-05-04 15:50 45.64705 9.21457 14767 ft 383 kts 91°
2026-05-04 15:50 45.64726 9.25284 15350 ft 386 kts 91°
2026-05-04 15:50 45.64741 9.29158 15939 ft 390 kts 91°
2026-05-04 15:51 45.64753 9.33042 16528 ft 393 kts 91°
2026-05-04 15:51 45.64767 9.36973 17113 ft 397 kts 91°
2026-05-04 15:51 45.64781 9.40931 17796 ft 400 kts 91°
2026-05-04 15:51 45.64795 9.44930 18362 ft 404 kts 91°
2026-05-04 15:52 45.64808 9.48978 18846 ft 409 kts 91°
2026-05-04 15:52 45.64818 9.53001 19337 ft 412 kts 91°
2026-05-04 15:52 45.64829 9.57108 19750 ft 415 kts 91°
2026-05-04 15:52 45.64838 9.61254 20278 ft 417 kts 91°
2026-05-04 15:53 45.64849 9.65424 20796 ft 420 kts 91°
2026-05-04 15:53 45.64861 9.69631 21315 ft 423 kts 91°
2026-05-04 15:53 45.64873 9.73797 21805 ft 426 kts 91°
2026-05-04 15:53 45.64887 9.78060 22297 ft 428 kts 91°
2026-05-04 15:54 45.64899 9.82340 22757 ft 431 kts 91°
2026-05-04 15:54 45.64908 9.86629 23297 ft 432 kts 91°
2026-05-04 15:54 45.64914 9.90937 23777 ft 433 kts 91°
2026-05-04 15:54 45.64918 9.95257 24176 ft 435 kts 91°
2026-05-04 15:55 45.64923 9.99559 24553 ft 437 kts 91°
2026-05-04 15:55 45.64926 10.03920 24924 ft 440 kts 91°
2026-05-04 15:55 45.64924 10.08329 25273 ft 442 kts 91°
2026-05-04 15:55 45.64920 10.12697 25638 ft 445 kts 92°
2026-05-04 15:56 45.64913 10.17140 26000 ft 447 kts 92°
2026-05-04 15:56 45.64904 10.21608 26351 ft 449 kts 92°
2026-05-04 15:56 45.64892 10.26083 26737 ft 451 kts 92°
2026-05-04 15:56 45.64880 10.30576 27120 ft 453 kts 92°
2026-05-04 15:57 45.64866 10.35030 27481 ft 455 kts 92°
2026-05-04 15:57 45.64849 10.39585 27809 ft 457 kts 92°
2026-05-04 15:57 45.64837 10.42612 28047 ft 458 kts 92°
2026-05-04 15:57 45.64834 10.48672 28485 ft 462 kts 90°
2026-05-04 15:58 45.65191 10.53267 28808 ft 466 kts 81°
2026-05-04 15:58 45.65633 10.56272 29025 ft 468 kts 80°
2026-05-04 15:58 45.66313 10.60850 29370 ft 470 kts 80°
2026-05-04 15:58 45.66987 10.65430 29740 ft 471 kts 80°
2026-05-04 15:59 45.67878 10.71544 30201 ft 473 kts 81°
2026-05-04 15:59 45.68331 10.74666 30438 ft 473 kts 81°
2026-05-04 15:59 45.68988 10.79221 30798 ft 473 kts 81°
2026-05-04 15:59 45.69655 10.83845 31153 ft 473 kts 80°
2026-05-04 16:00 45.70319 10.88451 31486 ft 473 kts 80°
2026-05-04 16:00 45.70984 10.93089 31833 ft 474 kts 80°
2026-05-04 16:00 45.71646 10.97725 32167 ft 474 kts 80°
2026-05-04 16:00 45.72298 11.02295 32483 ft 475 kts 80°
2026-05-04 16:01 45.72960 11.06946 32832 ft 475 kts 80°
2026-05-04 16:01 45.73616 11.11565 33234 ft 473 kts 79°
2026-05-04 16:01 45.74269 11.16186 33577 ft 473 kts 79°
2026-05-04 16:01 45.74920 11.20827 33911 ft 473 kts 79°
2026-05-04 16:02 45.75558 11.25400 34205 ft 473 kts 79°
2026-05-04 16:02 45.76203 11.30030 34484 ft 473 kts 79°
2026-05-04 16:02 45.77498 11.39287 35040 ft 473 kts 79°
2026-05-04 16:03 45.78149 11.43933 35304 ft 474 kts 79°
2026-05-04 16:03 45.78787 11.48508 35575 ft 474 kts 79°
2026-05-04 16:03 45.79428 11.53150 35862 ft 474 kts 79°
2026-05-04 16:03 45.80064 11.57795 36051 ft 474 kts 80°
2026-05-04 16:04 45.80697 11.62444 36101 ft 474 kts 80°
2026-05-04 16:04 45.82572 11.76285 36093 ft 473 kts 80°
2026-05-04 16:05 45.83825 11.85560 36101 ft 473 kts 80°
2026-05-04 16:06 45.85688 11.99441 36084 ft 470 kts 80°
2026-05-04 16:07 45.88134 12.17863 36089 ft 471 kts 80°
2026-05-04 16:08 45.90541 12.36329 36084 ft 471 kts 80°
2026-05-04 16:09 45.93511 12.59407 36079 ft 470 kts 80°
2026-05-04 16:10 45.95845 12.77839 36089 ft 469 kts 80°
2026-05-04 16:11 45.98154 12.96273 36096 ft 469 kts 81°
2026-05-04 16:12 46.01566 13.23942 36095 ft 469 kts 81°
2026-05-04 16:13 46.03797 13.42452 36102 ft 469 kts 81°
2026-05-04 16:14 46.05992 13.60927 36103 ft 469 kts 81°
2026-05-04 16:16 46.09257 13.83903 36105 ft 468 kts 78°
2026-05-04 16:17 46.12454 14.06886 36095 ft 468 kts 79°
2026-05-04 16:18 46.14955 14.25258 36083 ft 467 kts 79°
2026-05-04 16:19 46.18062 14.48225 36076 ft 466 kts 79°
2026-05-04 16:20 46.21116 14.71176 36074 ft 466 kts 79°
2026-05-04 16:22 46.24129 14.94197 36026 ft 469 kts 78°
2026-05-04 16:23 46.27678 15.21894 36047 ft 468 kts 79°
2026-05-04 16:24 46.28822 15.40516 36039 ft 467 kts 94°
2026-05-04 16:25 46.28336 15.49879 36038 ft 467 kts 94°
2026-05-04 16:26 46.26607 15.82567 36036 ft 466 kts 94°
2026-05-04 16:28 46.26156 16.05939 36038 ft 466 kts 90°
2026-05-04 16:29 46.25472 16.38644 36040 ft 464 kts 91°
2026-05-04 16:31 46.24940 16.61905 36039 ft 463 kts 91°
2026-05-04 16:32 46.24208 16.89703 36043 ft 461 kts 91°
2026-05-04 16:33 46.24843 17.08067 36049 ft 459 kts 83°
2026-05-04 16:34 46.25739 17.21852 36049 ft 458 kts 83°
2026-05-04 16:35 46.27511 17.49297 36059 ft 457 kts 83°
2026-05-04 16:36 46.28360 17.62974 36057 ft 455 kts 83°
2026-05-04 16:37 46.29201 17.76633 36063 ft 455 kts 83°
2026-05-04 16:38 46.30297 17.94834 36064 ft 454 kts 83°
2026-05-04 16:39 46.31613 18.17600 36060 ft 453 kts 83°
2026-05-04 16:40 46.32635 18.35748 36080 ft 453 kts 83°
2026-05-04 16:41 46.33871 18.58408 36071 ft 452 kts 83°
2026-05-04 16:43 46.35064 18.81031 36070 ft 451 kts 83°
2026-05-04 16:43 46.35752 18.94616 36068 ft 451 kts 84°
2026-05-04 16:45 46.37016 19.20216 36078 ft 451 kts 84°
2026-05-04 16:46 46.38080 19.42841 36086 ft 450 kts 84°
2026-05-04 16:47 46.38899 19.60898 36674 ft 450 kts 84°
2026-05-04 16:48 46.39487 19.74485 37068 ft 449 kts 84°
2026-05-04 16:48 46.39680 19.79009 37074 ft 449 kts 84°
2026-05-04 16:49 46.40794 19.96928 37072 ft 447 kts 81°
2026-05-04 16:50 46.42164 20.14867 37079 ft 448 kts 82°
2026-05-04 16:51 46.43066 20.28317 37094 ft 448 kts 82°
2026-05-04 16:52 46.44281 20.46316 37091 ft 448 kts 82°
2026-05-04 16:53 46.45183 20.59842 37100 ft 448 kts 82°
2026-05-04 16:54 46.46343 20.77820 37104 ft 447 kts 82°
2026-05-04 16:55 46.48034 21.04723 37125 ft 447 kts 82°
2026-05-04 16:56 46.49391 21.27179 37109 ft 447 kts 82°
2026-05-04 16:57 46.50562 21.40571 37106 ft 445 kts 79°
2026-05-04 16:58 46.52311 21.58412 37106 ft 446 kts 80°
2026-05-04 17:00 46.54691 21.85163 37111 ft 446 kts 80°
2026-05-04 17:01 46.56656 22.07544 37120 ft 446 kts 81°
2026-05-04 17:02 46.58174 22.25439 37120 ft 446 kts 81°
2026-05-04 17:03 46.59308 22.38867 37135 ft 446 kts 81°
2026-05-04 17:03 46.60426 22.52259 37127 ft 446 kts 81°
2026-05-04 17:04 46.61880 22.70197 37126 ft 446 kts 81°
2026-05-04 17:05 46.63314 22.88103 37139 ft 446 kts 81°
2026-05-04 17:06 46.64365 23.01493 37129 ft 445 kts 81°
2026-05-04 17:07 46.65296 23.13448 37116 ft 445 kts 81°
2026-05-04 17:07 46.66090 23.23890 37117 ft 445 kts 81°
2026-05-04 17:08 46.67112 23.37340 37117 ft 445 kts 82°
2026-05-04 17:09 46.67778 23.46329 37091 ft 445 kts 82°
2026-05-04 17:09 46.68430 23.55241 37081 ft 445 kts 82°
2026-05-04 17:10 46.70053 23.77684 37075 ft 445 kts 82°
2026-05-04 17:11 46.70687 23.86674 37079 ft 445 kts 82°
2026-05-04 17:12 46.71626 24.00121 37072 ft 445 kts 82°
2026-05-04 17:13 46.73156 24.22540 37069 ft 446 kts 83°
2026-05-04 17:14 46.74347 24.40520 37068 ft 446 kts 83°
2026-05-04 17:15 46.75227 24.54029 37066 ft 447 kts 83°
2026-05-04 17:16 46.76381 24.72117 37062 ft 447 kts 83°
2026-05-04 17:17 46.77493 24.90115 37073 ft 447 kts 83°
2026-05-04 17:18 46.78574 25.08201 37079 ft 447 kts 83°
2026-05-04 17:19 46.79644 25.26228 37089 ft 447 kts 83°
2026-05-04 17:20 46.80682 25.44356 37091 ft 447 kts 83°
2026-05-04 17:20 46.81433 25.57915 37091 ft 448 kts 84°
2026-05-04 17:21 46.82412 25.76032 37095 ft 448 kts 84°
2026-05-04 17:22 46.82890 25.85124 37068 ft 449 kts 84°
2026-05-04 17:23 46.83510 25.98751 36292 ft 447 kts 85°
2026-05-04 17:23 46.83697 26.03227 36040 ft 447 kts 85°
2026-05-04 17:23 46.84076 26.12322 35047 ft 450 kts 85°
2026-05-04 17:24 46.84274 26.16918 34277 ft 454 kts 85°
2026-05-04 17:24 46.84867 26.30834 31969 ft 458 kts 85°
2026-05-04 17:25 46.85053 26.35450 31419 ft 454 kts 85°
2026-05-04 17:25 46.85423 26.44573 30330 ft 447 kts 85°
2026-05-04 17:26 46.85783 26.53607 29176 ft 438 kts 85°
2026-05-04 17:26 46.86287 26.66663 27585 ft 423 kts 85°
2026-05-04 17:27 46.86557 26.73730 26721 ft 415 kts 85°
2026-05-04 17:27 46.86915 26.83410 25565 ft 404 kts 85°
2026-05-04 17:28 46.87156 26.90189 24779 ft 397 kts 85°
2026-05-04 17:29 46.87582 27.02126 23402 ft 387 kts 85°
2026-05-04 17:29 46.87993 27.13715 22116 ft 374 kts 84°
2026-05-04 17:30 46.88370 27.24873 20857 ft 361 kts 84°
2026-05-04 17:31 46.88604 27.32107 20000 ft 352 kts 84°
2026-05-04 17:31 46.88941 27.42672 18703 ft 343 kts 84°
2026-05-04 17:32 46.89161 27.49613 17782 ft 338 kts 84°
2026-05-04 17:33 46.89472 27.59666 16508 ft 325 kts 84°
2026-05-04 17:33 46.89568 27.62948 16075 ft 322 kts 84°
2026-05-04 17:34 46.89857 27.72629 14817 ft 313 kts 84°
2026-05-04 17:34 46.89950 27.75802 14405 ft 311 kts 84°
2026-05-04 17:35 46.90208 27.85144 13146 ft 302 kts 84°
2026-05-04 17:35 46.90373 27.91241 12343 ft 297 kts 83°
2026-05-04 17:35 46.90455 27.94211 11953 ft 294 kts 83°
2026-05-04 17:36 46.90537 27.97192 11561 ft 292 kts 83°
2026-05-04 17:36 46.90618 28.00158 11169 ft 290 kts 83°
2026-05-04 17:36 46.90697 28.03104 10780 ft 288 kts 83°
2026-05-04 17:36 46.90775 28.06029 10472 ft 285 kts 82°
2026-05-04 17:37 46.90846 28.08854 10257 ft 277 kts 82°
2026-05-04 17:37 46.90915 28.11651 10146 ft 272 kts 82°
2026-05-04 17:37 46.90987 28.14436 10089 ft 273 kts 82°
2026-05-04 17:37 46.91059 28.17175 10019 ft 273 kts 82°
2026-05-04 17:38 46.91134 28.19978 9570 ft 276 kts 82°
2026-05-04 17:38 46.91203 28.22760 9066 ft 271 kts 82°
2026-05-04 17:38 46.91269 28.25502 8585 ft 267 kts 82°
2026-05-04 17:38 46.91335 28.28212 8124 ft 265 kts 82°
2026-05-04 17:39 46.91467 28.33575 7215 ft 266 kts 83°
2026-05-04 17:39 46.91531 28.36266 6755 ft 264 kts 83°
2026-05-04 17:39 46.91591 28.38950 6292 ft 261 kts 83°
2026-05-04 17:40 46.91619 28.41604 5828 ft 259 kts 85°
2026-05-04 17:40 46.91665 28.44207 5433 ft 258 kts 84°
2026-05-04 17:40 46.91729 28.46806 5259 ft 252 kts 84°
2026-05-04 17:40 46.91792 28.49338 5082 ft 245 kts 85°
2026-05-04 17:41 46.91851 28.51781 4908 ft 237 kts 85°
2026-05-04 17:41 46.91909 28.54160 4733 ft 230 kts 85°
2026-05-04 17:41 46.91964 28.56455 4570 ft 220 kts 85°
2026-05-04 17:41 46.92016 28.58646 4409 ft 216 kts 85°
2026-05-04 17:42 46.92068 28.60835 4309 ft 215 kts 85°
2026-05-04 17:42 46.92119 28.63016 4066 ft 212 kts 85°
2026-05-04 17:42 46.92168 28.65151 3799 ft 207 kts 85°
2026-05-04 17:42 46.92216 28.67235 3530 ft 203 kts 85°
2026-05-04 17:43 46.92262 28.69272 3261 ft 198 kts 85°
2026-05-04 17:43 46.92307 28.71230 3005 ft 192 kts 85°
2026-05-04 17:43 46.92350 28.73167 2763 ft 187 kts 86°
2026-05-04 17:43 46.92391 28.75019 2522 ft 177 kts 86°
2026-05-04 17:44 46.92430 28.76784 2284 ft 169 kts 85°
2026-05-04 17:44 46.92468 28.78490 2058 ft 166 kts 86°
2026-05-04 17:44 46.92504 28.80145 1859 ft 158 kts 86°
2026-05-04 17:44 46.92536 28.81656 1649 ft 142 kts 86°
2026-05-04 17:45 46.92568 28.83069 1449 ft 137 kts 86°
2026-05-04 17:45 46.92602 28.84458 1248 ft 135 kts 86°
2026-05-04 17:45 46.92638 28.85838 1091 ft 136 kts 88°
2026-05-04 17:45 46.92659 28.87206 905 ft 136 kts 89°
2026-05-04 17:46 46.92692 28.88610 731 ft 138 kts 89°
2026-05-04 17:46 46.92720 28.90017 552 ft 137 kts 90°
2026-05-04 17:46 46.92745 28.91387 410 ft 128 kts 90°
2026-05-04 17:46 46.92768 28.92486 410 ft 84 kts 88°
2026-05-04 17:47 46.92779 28.93093 408 ft 41 kts 88°
2026-05-04 17:47 46.92790 28.93373 408 ft 14 kts 67°
2026-05-04 17:47 46.92873 28.93417 409 ft 14 kts 358°
2026-05-04 17:47 46.92973 28.93413 406 ft 10 kts
2026-05-04 17:48 46.93045 28.93423 409 ft 10 kts
2026-05-04 17:48 46.93066 28.93427 409 ft 0 kts
2026-05-04 17:48 46.93068 28.93428 409 ft 1 kts
2026-05-04 17:49 46.93079 28.93430 410 ft 3 kts
2026-05-04 17:49 46.93101 28.93433 410 ft 4 kts
2026-05-04 17:49 46.93135 28.93449 411 ft 7 kts 34°
2026-05-04 17:49 46.93143 28.93532 411 ft 11 kts 97°
2026-05-04 17:50 46.93172 28.93627 409 ft 9 kts 19°
2026-05-04 17:50 46.93198 28.93585 409 ft 7 kts 280°
2026-05-04 17:50 46.93202 28.93539 409 ft 3 kts 277°
2026-05-04 17:50 46.93203 28.93538 409 ft 0 kts 277°